| time (UTC) | temp F | wind direction | speed MPH | gust MPH | rain 1hr in | rain 24hr in | rain mn in | humidity % | barometer mb |
| 20260509091608 | 56 | 157 | 2.0 | 8.0 | 0.00 | 0.00 | 0.00 | 82 | 1012.4 |
| 20260509090046 | 56 | 107 | 2.0 | 5.0 | 0.00 | 0.00 | 0.00 | 81 | 1012.6 |
| 20260509084516 | 56 | 150 | 2.0 | 7.0 | 0.00 | 0.00 | 0.00 | 79 | 1012.6 |
| 20260509083054 | 56 | 110 | 2.0 | 7.0 | 0.00 | 0.00 | 0.00 | 78 | 1012.6 |
| 20260509081534 | 56 | 72 | 3.0 | 9.0 | 0.00 | 0.00 | 0.00 | 78 | 1012.6 |
| 20260509080107 | 56 | 129 | 2.0 | 6.0 | 0.00 | 0.00 | 0.00 | 77 | 1012.7 |
| 20260509074538 | 56 | 165 | 3.0 | 7.0 | 0.00 | 0.00 | 0.00 | 76 | 1012.7 |
| 20260509073008 | 56 | 83 | 2.0 | 5.0 | 0.00 | 0.00 | 0.00 | 76 | 1012.8 |
| 20260509071605 | 55 | 110 | 1.0 | 7.0 | 0.00 | 0.00 | 0.00 | 77 | 1012.8 |
| 20260509070029 | 55 | 133 | 2.0 | 8.0 | 0.00 | 0.00 | 0.00 | 77 | 1012.7 |
| 20260509064608 | 55 | 85 | 1.0 | 4.0 | 0.00 | 0.00 | 0.00 | 76 | 1012.7 |
| 20260509063039 | 55 | 152 | 1.0 | 5.0 | 0.00 | 0.00 | 0.00 | 75 | 1012.7 |
| 20260509061507 | 55 | 165 | 1.0 | 5.0 | 0.00 | 0.00 | 0.00 | 74 | 1012.7 |
| 20260509054520 | 56 | 96 | 2.0 | 7.0 | 0.00 | 0.00 | 0.00 | 72 | 1012.9 |
| 20260509053104 | 55 | 139 | 2.0 | 5.0 | 0.00 | 0.00 | 0.00 | 70 | 1013.0 |
| 20260509051534 | 55 | 85 | 1.0 | 6.0 | 0.00 | 0.00 | 0.00 | 69 | 1013.1 |
| 20260509050014 | 55 | 93 | 2.0 | 7.0 | 0.00 | 0.00 | 0.00 | 70 | 1013.0 |
| 20260509044551 | 55 | 141 | 1.0 | 6.0 | 0.00 | 0.00 | 0.00 | 72 | 1013.1 |
| 20260509043018 | 55 | 119 | 2.0 | 7.0 | 0.00 | 0.00 | 0.00 | 73 | 1013.2 |
| 20260509041601 | 55 | 86 | 2.0 | 7.0 | 0.00 | 0.00 | 0.00 | 73 | 1013.2 |
| 20260509040031 | 55 | 110 | 2.0 | 8.0 | 0.00 | 0.00 | 0.00 | 72 | 1013.3 |
| 20260509034611 | 55 | 145 | 1.0 | 6.0 | 0.00 | 0.00 | 0.00 | 71 | 1013.4 |
| 20260509033040 | 55 | 90 | 2.0 | 6.0 | 0.00 | 0.00 | 0.00 | 73 | 1013.2 |
| 20260509031513 | 55 | 94 | 2.0 | 6.0 | 0.00 | 0.00 | 0.00 | 74 | 1013.2 |
| 20260509030052 | 55 | 72 | 2.0 | 6.0 | 0.00 | 0.00 | 0.00 | 74 | 1013.1 |
| 20260509024526 | 55 | 60 | 1.0 | 7.0 | 0.00 | 0.00 | 0.00 | 74 | 1013.1 |
| 20260509023105 | 55 | 141 | 2.0 | 8.0 | 0.00 | 0.00 | 0.00 | 74 | 1013.1 |
| 20260509021539 | 55 | 96 | 3.0 | 7.0 | 0.00 | 0.00 | 0.00 | 74 | 1013.3 |
| 20260509020009 | 55 | 56 | 2.0 | 7.0 | 0.00 | 0.00 | 0.00 | 73 | 1013.2 |
| 20260509014552 | 56 | 79 | 2.0 | 6.0 | 0.00 | 0.00 | 0.00 | 74 | 1013.1 |
| 20260509013034 | 56 | 81 | 2.0 | 8.0 | 0.00 | 0.00 | 0.00 | 75 | 1013.1 |
| 20260509011609 | 56 | 99 | 2.0 | 8.0 | 0.00 | 0.00 | 0.00 | 74 | 1012.9 |
| 20260509010038 | 56 | 87 | 2.0 | 8.0 | 0.00 | 0.00 | 0.00 | 72 | 1012.6 |
| 20260509004506 | 56 | 68 | 2.0 | 8.0 | 0.00 | 0.00 | 0.00 | 69 | 1012.4 |
| 20260509003045 | 57 | 150 | 3.0 | 9.0 | 0.00 | 0.00 | 0.00 | 66 | 1012.3 |
| 20260509001513 | 57 | 94 | 3.0 | 9.0 | 0.00 | 0.00 | 0.00 | 63 | 1012.2 |
| 20260509000058 | 57 | 72 | 2.0 | 9.0 | 0.00 | 0.00 | 0.00 | 64 | 1012.2 |
| 20260508234526 | 57 | 79 | 3.0 | 8.0 | 0.00 | 0.00 | 0.00 | 63 | 1012.1 |
| 20260508233107 | 57 | 103 | 3.0 | 11.0 | 0.00 | 0.00 | 0.00 | 64 | 1011.9 |
| 20260508231537 | 57 | 149 | 2.0 | 10.0 | 0.00 | 0.00 | 0.00 | 65 | 1011.8 |
| 20260508230017 | 58 | 116 | 3.0 | 11.0 | 0.00 | 0.00 | 0.00 | 66 | 1011.8 |
| 20260508224600 | 57 | 169 | 3.0 | 11.0 | 0.00 | 0.00 | 0.00 | 68 | 1011.7 |
| 20260508223030 | 57 | 174 | 2.0 | 11.0 | 0.00 | 0.00 | 0.00 | 65 | 1011.6 |
| 20260508221606 | 58 | 189 | 4.0 | 11.0 | 0.00 | 0.00 | 0.00 | 63 | 1011.6 |
| 20260508220032 | 58 | 58 | 4.0 | 9.0 | 0.00 | 0.00 | 0.00 | 60 | 1011.7 |
| 20260508214606 | 58 | 143 | 4.0 | 8.0 | 0.00 | 0.00 | 0.00 | 60 | 1011.7 |
| 20260508213042 | 59 | 98 | 3.0 | 12.0 | 0.00 | 0.00 | 0.00 | 58 | 1011.9 |
| 20260508211506 | 59 | 70 | 1.0 | 7.0 | 0.00 | 0.00 | 0.00 | 56 | 1011.9 |
| 20260508210048 | 59 | 118 | 3.0 | 9.0 | 0.00 | 0.00 | 0.00 | 54 | 1012.0 |
| 20260508204519 | 59 | 61 | 2.0 | 12.0 | 0.00 | 0.00 | 0.00 | 55 | 1012.1 |
| 20260508203114 | 60 | 162 | 2.0 | 8.0 | 0.00 | 0.00 | 0.00 | 52 | 1012.3 |
| 20260508201530 | 61 | 166 | 2.0 | 6.0 | 0.00 | 0.00 | 0.00 | 51 | 1012.5 |
| 20260508200105 | 62 | 216 | 3.0 | 8.0 | 0.00 | 0.00 | 0.00 | 47 | 1012.5 |
| 20260508194535 | 63 | 177 | 3.0 | 7.0 | 0.00 | 0.01 | 0.00 | 44 | 1012.5 |
| 20260508193002 | 63 | 108 | 3.0 | 8.0 | 0.00 | 0.01 | 0.00 | 47 | 1012.6 |
| 20260508191544 | 63 | 81 | 2.0 | 10.0 | 0.00 | 0.01 | 0.00 | 48 | 1012.6 |
| 20260508190027 | 63 | 36 | 3.0 | 9.0 | 0.00 | 0.01 | 0.00 | 52 | 1012.7 |
| 20260508184622 | 63 | 67 | 3.0 | 11.0 | 0.00 | 0.01 | 0.00 | 51 | 1012.9 |
| 20260508183023 | 64 | 70 | 2.0 | 12.0 | 0.00 | 0.01 | 0.00 | 50 | 1012.9 |
| 20260508181603 | 67 | 56 | 2.0 | 10.0 | 0.00 | 0.01 | 0.00 | 50 | 1012.8 |
| 20260508180032 | 70 | 174 | 1.0 | 5.0 | 0.00 | 0.01 | 0.00 | 33 | 1012.9 |
| 20260508174619 | 70 | 68 | 1.0 | 5.0 | 0.00 | 0.01 | 0.00 | 34 | 1012.9 |
| 20260508173044 | 69 | 68 | 1.0 | 8.0 | 0.00 | 0.01 | 0.00 | 38 | 1013.2 |
| 20260508171517 | 69 | 79 | 1.0 | 5.0 | 0.00 | 0.01 | 0.00 | 35 | 1013.2 |
| 20260508170052 | 69 | 48 | 1.0 | 5.0 | 0.00 | 0.01 | 0.00 | 33 | 1013.5 |
| 20260508164524 | 68 | 79 | 1.0 | 5.0 | 0.00 | 0.01 | 0.00 | 35 | 1013.7 |
| 20260508163059 | 68 | 66 | 1.0 | 6.0 | 0.00 | 0.01 | 0.00 | 33 | 1013.9 |
| 20260508161539 | 69 | 285 | 1.0 | 5.0 | 0.00 | 0.01 | 0.00 | 34 | 1013.8 |
| 20260508160108 | 69 | 17 | 2.0 | 5.0 | 0.00 | 0.01 | 0.00 | 36 | 1013.9 |
| 20260508154541 | 68 | 347 | 1.0 | 6.0 | 0.00 | 0.01 | 0.00 | 35 | 1013.8 |
| 20260508153008 | 67 | 126 | 0.0 | 3.0 | 0.00 | 0.01 | 0.00 | 40 | 1014.0 |
| 20260508151556 | 67 | 13 | 0.0 | 3.0 | 0.00 | 0.01 | 0.00 | 37 | 1014.1 |
| 20260508150027 | 67 | 141 | 0.0 | 4.0 | 0.00 | 0.01 | 0.00 | 39 | 1014.2 |
| 20260508144604 | 67 | 345 | 0.0 | 3.0 | 0.00 | 0.01 | 0.00 | 39 | 1014.4 |
| 20260508143037 | 65 | 242 | 0.0 | 3.0 | 0.00 | 0.01 | 0.00 | 38 | 1014.4 |
| 20260508141510 | 64 | 327 | 0.0 | 2.0 | 0.00 | 0.01 | 0.00 | 40 | 1014.4 |
| 20260508140101 | 64 | 30 | 1.0 | 5.0 | 0.00 | 0.01 | 0.00 | 38 | 1014.5 |
| 20260508134525 | 63 | 91 | 0.0 | 4.0 | 0.00 | 0.01 | 0.00 | 40 | 1014.5 |
| 20260508133114 | 62 | 13 | 0.0 | 7.0 | 0.00 | 0.01 | 0.00 | 44 | 1014.6 |
| 20260508131539 | 62 | 229 | 0.0 | 2.0 | 0.00 | 0.01 | 0.00 | 46 | 1014.6 |
| 20260508130012 | 59 | 62 | 2.0 | 6.0 | 0.00 | 0.01 | 0.00 | 49 | 1014.5 |
| 20260508124550 | 58 | 41 | 0.0 | 6.0 | 0.00 | 0.01 | 0.00 | 58 | 1014.4 |
| 20260508123019 | 55 | 46 | 3.0 | 7.0 | 0.00 | 0.01 | 0.00 | 59 | 1014.3 |
| 20260508121603 | 53 | 107 | 1.0 | 5.0 | 0.00 | 0.01 | 0.00 | 65 | 1014.2 |
| 20260508120030 | 52 | 35 | 2.0 | 5.0 | 0.00 | 0.01 | 0.00 | 67 | 1014.0 |
| 20260508114615 | 51 | 23 | 2.0 | 8.0 | 0.00 | 0.01 | 0.00 | 68 | 1014.1 |
| 20260508113052 | 51 | 198 | 2.0 | 8.0 | 0.00 | 0.01 | 0.00 | 70 | 1013.7 |
| 20260508111507 | 50 | 6 | 1.0 | 6.0 | 0.00 | 0.01 | 0.00 | 72 | 1013.5 |
| 20260508110044 | 49 | 73 | 0.0 | 3.0 | 0.00 | 0.01 | 0.00 | 74 | 1013.5 |
| 20260508104512 | 49 | 33 | 0.0 | 4.0 | 0.00 | 0.01 | 0.00 | 74 | 1013.3 |
| 20260508103056 | 50 | 300 | 0.0 | 7.0 | 0.00 | 0.01 | 0.00 | 72 | 1012.9 |
| 20260508101542 | 50 | 15 | 2.0 | 8.0 | 0.00 | 0.01 | 0.00 | 73 | 1012.9 |
| 20260508100006 | 50 | 32 | 1.0 | 9.0 | 0.00 | 0.01 | 0.00 | 73 | 1012.7 |
| 20260508094543 | 50 | 349 | 2.0 | 7.0 | 0.00 | 0.01 | 0.00 | 75 | 1012.3 |
| 20260508093018 | 50 | 24 | 1.0 | 5.0 | 0.00 | 0.01 | 0.00 | 76 | 1012.0 |